DLH594 DNAA-DNPO

Flight info

Callsign DLH594
Flight time 0h 42m
Altitude 30000
Route IKVAD1Q IKVAD DCT IVBUV UV456 BORMO
Aircraft A343/H-SDE2E3FGHIJ3J5M1P2RWXYZ/LB1D1

Departure

Time 2026-04-27 12:17
Airport Nnamdi Azikiwe International Airport (DNAA)

Arrival

Time 2026-04-27 12:59
Airport Port Harcourt International Airport (DNPO)
Time Latitude Longitude Altitude Speed Heading
2026-04-27 11:39 9.00578 7.26831 1130 ft 0 kts
2026-04-27 12:05 9.00572 7.26831 1130 ft 3 kts 359°
2026-04-27 12:06 9.00550 7.26832 1132 ft 3 kts 357°
2026-04-27 12:06 9.00530 7.26832 1132 ft 1 kts 13°
2026-04-27 12:06 9.00512 7.26826 1135 ft 3 kts 30°
2026-04-27 12:06 9.00494 7.26813 1135 ft 3 kts 39°
2026-04-27 12:07 9.00478 7.26804 1135 ft 2 kts 358°
2026-04-27 12:07 9.00460 7.26806 1135 ft 3 kts 340°
2026-04-27 12:07 9.00442 7.26816 1130 ft 3 kts 321°
2026-04-27 12:07 9.00431 7.26824 1130 ft 0 kts 329°
2026-04-27 12:10 9.00440 7.26819 1135 ft 4 kts 329°
2026-04-27 12:11 9.00473 7.26791 1137 ft 8 kts 305°
2026-04-27 12:11 9.00464 7.26738 1134 ft 9 kts 247°
2026-04-27 12:11 9.00441 7.26676 1134 ft 10 kts 260°
2026-04-27 12:11 9.00488 7.26621 1119 ft 13 kts 327°
2026-04-27 12:12 9.00542 7.26582 1115 ft 16 kts 320°
2026-04-27 12:12 9.00617 7.26506 1117 ft 12 kts 333°
2026-04-27 12:12 9.00687 7.26527 1116 ft 10 kts 35°
2026-04-27 12:12 9.00750 7.26572 1114 ft 13 kts 35°
2026-04-27 12:13 9.00834 7.26630 1117 ft 15 kts 35°
2026-04-27 12:13 9.00924 7.26694 1119 ft 18 kts 35°
2026-04-27 12:13 9.01038 7.26775 1115 ft 21 kts 35°
2026-04-27 12:13 9.01153 7.26856 1135 ft 20 kts 35°
2026-04-27 12:14 9.01264 7.26935 1134 ft 20 kts 35°
2026-04-27 12:14 9.01382 7.27018 1137 ft 21 kts 35°
2026-04-27 12:14 9.01502 7.27103 1135 ft 21 kts 35°
2026-04-27 12:14 9.01627 7.27191 1135 ft 23 kts 35°
2026-04-27 12:15 9.01759 7.27285 1139 ft 21 kts 35°
2026-04-27 12:15 9.01870 7.27360 1133 ft 16 kts 27°
2026-04-27 12:15 9.01951 7.27327 1138 ft 13 kts 306°
2026-04-27 12:15 9.01989 7.27258 1138 ft 6 kts 277°
2026-04-27 12:16 9.01963 7.27223 1138 ft 7 kts 215°
2026-04-27 12:16 9.01910 7.27185 1138 ft 17 kts 215°
2026-04-27 12:16 9.01670 7.27017 1138 ft 75 kts 214°
2026-04-27 12:16 9.01066 7.26590 1114 ft 135 kts 215°
2026-04-27 12:17 9.00166 7.25956 1273 ft 171 kts 214°
2026-04-27 12:17 8.99178 7.25270 1901 ft 173 kts 214°
2026-04-27 12:17 8.98205 7.24511 2472 ft 187 kts 226°
2026-04-27 12:17 8.97414 7.23379 2937 ft 207 kts 232°
2026-04-27 12:18 8.96213 7.22479 3340 ft 232 kts 200°
2026-04-27 12:18 8.94552 7.22096 3851 ft 255 kts 185°
2026-04-27 12:18 8.92750 7.21928 4727 ft 264 kts 183°
2026-04-27 12:18 8.90897 7.21811 5663 ft 269 kts 181°
2026-04-27 12:19 8.89012 7.21731 6628 ft 273 kts 179°
2026-04-27 12:19 8.87088 7.21672 7514 ft 279 kts 178°
2026-04-27 12:19 8.85131 7.21624 8441 ft 283 kts 176°
2026-04-27 12:19 8.83139 7.21583 9362 ft 289 kts 175°
2026-04-27 12:20 8.81113 7.21545 10211 ft 296 kts 175°
2026-04-27 12:20 8.78984 7.21511 10601 ft 317 kts 175°
2026-04-27 12:20 8.76720 7.21475 11071 ft 334 kts 176°
2026-04-27 12:20 8.74365 7.21433 11734 ft 342 kts 176°
2026-04-27 12:21 8.71969 7.21388 12523 ft 346 kts 176°
2026-04-27 12:21 8.69546 7.21343 13330 ft 350 kts 177°
2026-04-27 12:21 8.67099 7.21298 14081 ft 354 kts 177°
2026-04-27 12:21 8.64620 7.21254 14770 ft 359 kts 177°
2026-04-27 12:22 8.62102 7.21210 15423 ft 365 kts 178°
2026-04-27 12:22 8.59557 7.21165 16156 ft 368 kts 178°
2026-04-27 12:22 8.56983 7.21120 16921 ft 371 kts 179°
2026-04-27 12:22 8.54419 7.21074 17658 ft 375 kts 179°
2026-04-27 12:23 8.51765 7.21028 18374 ft 379 kts 179°
2026-04-27 12:23 8.49149 7.20982 18986 ft 383 kts 179°
2026-04-27 12:23 8.46474 7.20935 19607 ft 387 kts 180°
2026-04-27 12:23 8.43736 7.20887 20228 ft 391 kts 180°
2026-04-27 12:24 8.41003 7.20840 20828 ft 395 kts 180°
2026-04-27 12:24 8.38243 7.20792 21429 ft 398 kts 180°
2026-04-27 12:24 8.35502 7.20744 22012 ft 402 kts 180°
2026-04-27 12:24 8.32691 7.20695 22591 ft 406 kts 180°
2026-04-27 12:25 8.29858 7.20646 23163 ft 409 kts 180°
2026-04-27 12:25 8.26996 7.20596 23678 ft 413 kts 180°
2026-04-27 12:25 8.24110 7.20546 24127 ft 417 kts 180°
2026-04-27 12:25 8.21197 7.20496 24585 ft 421 kts 180°
2026-04-27 12:26 8.18256 7.20430 25048 ft 424 kts 181°
2026-04-27 12:26 8.15292 7.20289 25503 ft 428 kts 182°
2026-04-27 12:26 8.12308 7.20102 25953 ft 431 kts 183°
2026-04-27 12:26 8.09303 7.19901 26395 ft 435 kts 183°
2026-04-27 12:27 8.06270 7.19701 26815 ft 438 kts 183°
2026-04-27 12:27 8.03219 7.19508 27238 ft 442 kts 183°
2026-04-27 12:27 8.00135 7.19321 27648 ft 445 kts 182°
2026-04-27 12:27 7.97030 7.19139 28046 ft 449 kts 182°
2026-04-27 12:28 7.93902 7.18959 28443 ft 452 kts 182°
2026-04-27 12:28 7.90751 7.18780 28853 ft 455 kts 182°
2026-04-27 12:28 7.87584 7.18600 29287 ft 457 kts 182°
2026-04-27 12:28 7.84398 7.18401 29656 ft 460 kts 184°
2026-04-27 12:29 7.81196 7.18114 29862 ft 462 kts 185°
2026-04-27 12:29 7.78046 7.17781 29891 ft 448 kts 186°
2026-04-27 12:29 7.74986 7.17440 29893 ft 440 kts 186°
2026-04-27 12:30 7.68906 7.16775 29887 ft 439 kts 186°
2026-04-27 12:30 7.62826 7.16147 29895 ft 440 kts 185°
2026-04-27 12:31 7.56730 7.15557 29898 ft 440 kts 185°
2026-04-27 12:31 7.50638 7.15024 29896 ft 439 kts 184°
2026-04-27 12:32 7.44556 7.14494 29897 ft 439 kts 185°
2026-04-27 12:32 7.38518 7.13959 29898 ft 438 kts 185°
2026-04-27 12:33 7.32436 7.13415 29896 ft 439 kts 185°
2026-04-27 12:33 7.26363 7.12871 29895 ft 438 kts 184°
2026-04-27 12:34 7.20281 7.12327 29897 ft 439 kts 185°
2026-04-27 12:34 7.14200 7.11784 29898 ft 438 kts 185°
2026-04-27 12:35 7.08125 7.11241 29894 ft 439 kts 185°
2026-04-27 12:35 7.02041 7.10697 29895 ft 439 kts 184°
2026-04-27 12:36 6.95965 7.10154 29895 ft 439 kts 184°
2026-04-27 12:36 6.89922 7.09301 29896 ft 439 kts 189°
2026-04-27 12:37 6.83886 7.08409 29897 ft 439 kts 185°
2026-04-27 12:37 6.77807 7.07917 29701 ft 436 kts 183°
2026-04-27 12:37 6.74787 7.07723 29441 ft 435 kts 182°
2026-04-27 12:38 6.71804 7.07548 29171 ft 436 kts 182°
2026-04-27 12:38 6.68776 7.07375 28918 ft 436 kts 182°
2026-04-27 12:38 6.65749 7.07202 28668 ft 436 kts 182°
2026-04-27 12:38 6.62719 7.07027 28408 ft 437 kts 182°
2026-04-27 12:39 6.59685 7.06849 27994 ft 436 kts 182°
2026-04-27 12:39 6.56658 7.06670 27362 ft 436 kts 182°
2026-04-27 12:39 6.53631 7.06487 26807 ft 435 kts 183°
2026-04-27 12:39 6.50628 7.06251 26313 ft 432 kts 184°
2026-04-27 12:40 6.47647 7.05972 25814 ft 429 kts 184°
2026-04-27 12:40 6.44686 7.05679 25318 ft 426 kts 185°
2026-04-27 12:40 6.41742 7.05388 24822 ft 424 kts 184°
2026-04-27 12:40 6.38814 7.05104 24331 ft 421 kts 184°
2026-04-27 12:41 6.35903 7.04829 23839 ft 419 kts 184°
2026-04-27 12:41 6.33003 7.04561 23315 ft 417 kts 184°
2026-04-27 12:41 6.30119 7.04297 22794 ft 415 kts 184°
2026-04-27 12:41 6.27262 7.04038 22308 ft 411 kts 184°
2026-04-27 12:42 6.24428 7.03781 21828 ft 407 kts 184°
2026-04-27 12:42 6.21623 7.03526 21347 ft 403 kts 184°
2026-04-27 12:42 6.18840 7.03274 20868 ft 400 kts 184°
2026-04-27 12:42 6.16076 7.03023 20391 ft 397 kts 184°
2026-04-27 12:43 6.13336 7.02775 19912 ft 394 kts 184°
2026-04-27 12:43 6.10615 7.02528 19437 ft 392 kts 184°
2026-04-27 12:43 6.07903 7.02298 18932 ft 390 kts 184°
2026-04-27 12:43 6.05202 7.02078 18454 ft 388 kts 184°
2026-04-27 12:44 6.02518 7.01858 17943 ft 386 kts 184°
2026-04-27 12:44 5.99885 7.01641 17459 ft 383 kts 183°
2026-04-27 12:44 5.97246 7.01423 16989 ft 379 kts 183°
2026-04-27 12:44 5.94628 7.01206 16523 ft 375 kts 183°
2026-04-27 12:45 5.92038 7.00991 16063 ft 372 kts 183°
2026-04-27 12:45 5.89464 7.00778 15603 ft 369 kts 182°
2026-04-27 12:45 5.86911 7.00567 15149 ft 367 kts 182°
2026-04-27 12:45 5.84378 7.00357 14699 ft 365 kts 182°
2026-04-27 12:46 5.81849 7.00196 14237 ft 362 kts 177°
2026-04-27 12:46 5.79386 7.00544 13768 ft 357 kts 163°
2026-04-27 12:46 5.77012 7.01200 13274 ft 349 kts 161°
2026-04-27 12:46 5.74708 7.01876 12836 ft 341 kts 161°
2026-04-27 12:47 5.72453 7.02539 12407 ft 336 kts 160°
2026-04-27 12:47 5.70212 7.03194 11984 ft 335 kts 160°
2026-04-27 12:47 5.67981 7.03842 11555 ft 333 kts 160°
2026-04-27 12:47 5.65763 7.04485 11137 ft 331 kts 161°
2026-04-27 12:48 5.63559 7.05122 10706 ft 329 kts 160°
2026-04-27 12:48 5.61364 7.05755 10283 ft 327 kts 160°
2026-04-27 12:48 5.59207 7.06375 10119 ft 315 kts 160°
2026-04-27 12:48 5.57148 7.06964 10006 ft 302 kts 160°
2026-04-27 12:49 5.55165 7.07535 9884 ft 292 kts 160°
2026-04-27 12:49 5.53236 7.08092 9647 ft 287 kts 160°
2026-04-27 12:49 5.51318 7.08647 9297 ft 286 kts 160°
2026-04-27 12:49 5.49360 7.09027 8964 ft 288 kts 173°
2026-04-27 12:50 5.47354 7.09005 8600 ft 289 kts 179°
2026-04-27 12:50 5.45352 7.08883 8203 ft 288 kts 180°
2026-04-27 12:50 5.43361 7.08754 7773 ft 285 kts 180°
2026-04-27 12:50 5.41385 7.08630 7350 ft 284 kts 180°
2026-04-27 12:51 5.39419 7.08509 6962 ft 283 kts 180°
2026-04-27 12:51 5.37460 7.08391 6662 ft 281 kts 180°
2026-04-27 12:51 5.35516 7.08274 6346 ft 279 kts 180°
2026-04-27 12:51 5.33585 7.08161 6044 ft 277 kts 180°
2026-04-27 12:52 5.31692 7.08049 5678 ft 266 kts 181°
2026-04-27 12:52 5.29904 7.07942 5330 ft 251 kts 181°
2026-04-27 12:52 5.28195 7.07840 4987 ft 241 kts 182°
2026-04-27 12:52 5.26545 7.07737 4634 ft 234 kts 184°
2026-04-27 12:53 5.23483 7.06777 4018 ft 232 kts 206°
2026-04-27 12:53 5.22059 7.06007 3727 ft 232 kts 207°
2026-04-27 12:53 5.20673 7.05249 3433 ft 226 kts 208°
2026-04-27 12:54 5.19319 7.04513 3217 ft 217 kts 207°
2026-04-27 12:54 5.18002 7.03804 3018 ft 214 kts 207°
2026-04-27 12:54 5.16701 7.03108 2851 ft 208 kts 207°
2026-04-27 12:54 5.15469 7.02448 2684 ft 195 kts 207°
2026-04-27 12:55 5.14308 7.01824 2521 ft 183 kts 206°
2026-04-27 12:55 5.13222 7.01240 2315 ft 172 kts 207°
2026-04-27 12:55 5.12210 7.00693 2110 ft 157 kts 207°
2026-04-27 12:55 5.11292 7.00198 1909 ft 142 kts 207°
2026-04-27 12:56 5.10460 6.99750 1729 ft 129 kts 207°
2026-04-27 12:56 5.09682 6.99330 1575 ft 125 kts 206°
2026-04-27 12:56 5.08910 6.98916 1408 ft 127 kts 207°
2026-04-27 12:56 5.08112 6.98486 1256 ft 133 kts 207°
2026-04-27 12:57 5.07306 6.98050 1108 ft 132 kts 206°
2026-04-27 12:57 5.06500 6.97616 931 ft 130 kts 206°
2026-04-27 12:57 5.05699 6.97194 766 ft 129 kts 207°
2026-04-27 12:57 5.04899 6.96760 627 ft 132 kts 207°
2026-04-27 12:58 5.04095 6.96326 461 ft 132 kts 207°
2026-04-27 12:58 5.03302 6.95897 254 ft 126 kts 207°
2026-04-27 12:58 5.02527 6.95482 100 ft 127 kts 207°
2026-04-27 12:58 5.01832 6.95109 86 ft 91 kts 208°
2026-04-27 12:59 5.01371 6.94862 80 ft 66 kts 208°
2026-04-27 12:59 5.01112 6.94730 81 ft 25 kts 198°
2026-04-27 12:59 5.00949 6.94710 82 ft 23 kts 181°
2026-04-27 12:59 5.00842 6.94727 79 ft 8 kts 144°
2026-04-27 13:00 5.00825 6.94783 78 ft 9 kts 80°
2026-04-27 13:00 5.00853 6.94814 79 ft 10 kts 31°
2026-04-27 13:00 5.00919 6.94849 78 ft 12 kts 32°
2026-04-27 13:00 5.00919 6.94906 77 ft 7 kts 118°
2026-04-27 13:01 5.00896 6.94948 77 ft 7 kts 120°
2026-04-27 13:01 5.00876 6.94966 82 ft 1 kts 166°
2026-04-27 13:01 5.00859 6.94956 79 ft 5 kts 212°
2026-04-27 13:01 5.00829 6.94940 81 ft 3 kts 208°
2026-04-27 13:02 5.00817 6.94934 79 ft 0 kts 208°